Location: Warszawa
(52.2500°N, 21.0000°E)
Time: 15:19:40
(UTC+01:00)

Vanguard 2 - Pass Details

Date: 16 February 2023
Orbit: 553 x 2927 km, 32.9° (Epoch: 24 March)

Event Time Altitude Azimuth Distance (km) Brightness Sun altitude
Rises 17:02:18 0° 197° (SSW) 3,581 11.5 -2.5°
Reaches altitude 10° 17:06:34 10° 168° (SSE) 3,074 10.7 -3.2°
Maximum altitude 17:09:27 12° 146° (SE) 3,193 10.5 -3.6°
Drops below altitude 10° 17:12:48 10° 124° (SE) 3,727 10.7 -4.1°
Enters shadow 17:19:07 - 101° (ESE) 5,282 11.2 -5.0°
Sets 17:19:27 0° 101° (E) 5,369 - -5.1°
